sat.trackr.live / text

‹ back to catalog

STARLINK-4255

NORAD 53003 · 2022-076T

PAYLOAD ACTIVE UNKNOWN

§ Identity

Operator
Country
US
Launch date
2022-07-07
Launch site
AFETR
Launch vehicle
Mass (kg)
RCS (m²)

Purposes: comms

External: N2YO · Heavens-Above · Gunter

§ Orbital elements

Epoch: 2026-09-19T16:24:12.398112Z

Period
93.85 min
Inclination
53.1604°
Eccentricity
0.0001392
Mean motion
15.34389628 rev/d
Perigee alt
461.8 km
Apogee alt
463.7 km
Semi-major
6,840.9 km
B*
2.0456e-5
RAAN
287.1937°
Arg perigee
85.3558°
Mean anomaly
274.7603°
Rev number
23,234

§ Raw data

STARLINK-42551 53003U 22076T   26262.68347683  .00000315  00000+0  20456-4 0  99902 53003  53.1604 287.1937 0001392  85.3558 274.7603 15.34389628232340

JSON: /api/v1/satellites/53003 · /tle

For live sub-satellite position, see the globe view (requires WebGL).

§ Visibility from observer

Set your observer location to see the next 7 days of passes ≥ 10°. The values pass through the URL so the page stays shareable.

No JS? Fill the form by hand. The geolocation button needs JavaScript.